owner,sensor,date,latitude,longitude,vertical_datum,sea_water_temperature,qcFlag
Shell,ioos:station:wmo:42882:1,2022-12-01T00:05:00Z,28.1818,-89.2849,10.2,24.3,11111222
Shell,ioos:station:wmo:42882:1,2022-12-01T00:15:00Z,28.1818,-89.2849,10.3,24.3,11111222
Shell,ioos:station:wmo:42882:1,2022-12-01T00:24:00Z,28.1819,-89.2849,10.3,24.3,11111222
Shell,ioos:station:wmo:42882:1,2022-12-01T00:34:00Z,28.1818,-89.2849,10.3,24.3,11111222
Shell,ioos:station:wmo:42882:1,2022-12-01T00:45:00Z,28.1818,-89.2849,10.3,24.4,11111222
Shell,ioos:station:wmo:42882:1,2022-12-01T00:55:00Z,28.1818,-89.2849,10.3,24.4,11111222
Shell,ioos:station:wmo:42882:1,2022-12-01T01:05:00Z,28.1818,-89.2849,10.3,24.3,11111222
Shell,ioos:station:wmo:42882:1,2022-12-01T01:15:00Z,28.1818,-89.2849,10.2,24.4,11111222
Shell,ioos:station:wmo:42882:1,2022-12-01T01:25:00Z,28.1818,-89.2849,10.2,24.4,11111222
Shell,ioos:station:wmo:42882:1,2022-12-01T01:35:00Z,28.1818,-89.2849,10.2,24.4,11111222
Shell,ioos:station:wmo:42882:1,2022-12-01T01:45:00Z,28.1818,-89.2849,10.2,24.4,11111222
Shell,ioos:station:wmo:42882:1,2022-12-01T01:55:00Z,28.1818,-89.2849,10.2,24.4,11111222
Shell,ioos:station:wmo:42882:1,2022-12-01T02:04:00Z,28.1818,-89.2849,10.1,24.4,11111222
Shell,ioos:station:wmo:42882:1,2022-12-01T02:15:00Z,28.1818,-89.2849,10.1,24.3,11111222
Shell,ioos:station:wmo:42882:1,2022-12-01T02:25:00Z,28.1818,-89.2849,10.1,24.3,11111222
Shell,ioos:station:wmo:42882:1,2022-12-01T02:34:00Z,28.1818,-89.2849,10.1,24.3,11111222
Shell,ioos:station:wmo:42882:1,2022-12-01T02:45:00Z,28.1819,-89.2849,10.1,24.3,11111222
Shell,ioos:station:wmo:42882:1,2022-12-01T02:54:00Z,28.1818,-89.2849,10.1,24.3,11111222
Shell,ioos:station:wmo:42882:1,2022-12-01T03:05:00Z,28.1819,-89.2849,10.1,24.4,11111222
Shell,ioos:station:wmo:42882:1,2022-12-01T03:15:00Z,28.1819,-89.2849,10.1,24.4,11111222
Shell,ioos:station:wmo:42882:1,2022-12-01T03:25:00Z,28.1818,-89.2849,10.0,24.4,11111222
Shell,ioos:station:wmo:42882:1,2022-12-01T03:35:00Z,28.1819,-89.2850,9.9,24.4,11111222
Shell,ioos:station:wmo:42882:1,2022-12-01T03:45:00Z,28.1819,-89.2850,10.0,24.4,11111222
Shell,ioos:station:wmo:42882:1,2022-12-01T03:55:00Z,28.1819,-89.2850,9.9,24.4,11111222
Shell,ioos:station:wmo:42882:1,2022-12-01T04:05:00Z,28.1819,-89.2850,10.0,24.4,11111222
Shell,ioos:station:wmo:42882:1,2022-12-01T04:15:00Z,28.1819,-89.2850,10.0,24.4,11111222
Shell,ioos:station:wmo:42882:1,2022-12-01T04:25:00Z,28.1819,-89.2850,10.0,24.4,11111222
Shell,ioos:station:wmo:42882:1,2022-12-01T04:35:00Z,28.1819,-89.2850,10.0,24.4,11111222
Shell,ioos:station:wmo:42882:1,2022-12-01T04:44:00Z,28.1819,-89.2850,10.1,24.4,11111222
Shell,ioos:station:wmo:42882:1,2022-12-01T04:55:00Z,28.1819,-89.2850,10.2,24.4,11111222
Shell,ioos:station:wmo:42882:1,2022-12-01T05:05:00Z,28.1819,-89.2850,10.3,24.4,11111222
Shell,ioos:station:wmo:42882:1,2022-12-01T05:15:00Z,28.1819,-89.2850,10.2,24.4,11111222
Shell,ioos:station:wmo:42882:1,2022-12-01T05:25:00Z,28.1819,-89.2850,10.3,24.4,11111222
Shell,ioos:station:wmo:42882:1,2022-12-01T05:35:00Z,28.1819,-89.2850,10.4,24.5,11111222
Shell,ioos:station:wmo:42882:1,2022-12-01T05:45:00Z,28.1819,-89.2850,10.3,24.5,11111222
Shell,ioos:station:wmo:42882:1,2022-12-01T05:54:00Z,28.1819,-89.2850,10.3,24.5,11111222
Shell,ioos:station:wmo:42882:1,2022-12-01T06:04:00Z,28.1819,-89.2850,10.3,24.5,11111222
Shell,ioos:station:wmo:42882:1,2022-12-01T06:15:00Z,28.1819,-89.2850,10.3,24.5,11111222
Shell,ioos:station:wmo:42882:1,2022-12-01T06:25:00Z,28.1819,-89.2850,10.3,24.5,11111222
Shell,ioos:station:wmo:42882:1,2022-12-01T06:35:00Z,28.1819,-89.2850,10.4,24.5,11111222
Shell,ioos:station:wmo:42882:1,2022-12-01T06:45:00Z,28.1819,-89.2850,10.2,24.5,11111222
Shell,ioos:station:wmo:42882:1,2022-12-01T06:55:00Z,28.1819,-89.2850,10.2,24.5,11111222
Shell,ioos:station:wmo:42882:1,2022-12-01T07:05:00Z,28.1819,-89.2850,10.3,24.5,11111222
Shell,ioos:station:wmo:42882:1,2022-12-01T07:15:00Z,28.1819,-89.2850,10.3,24.5,11111222
Shell,ioos:station:wmo:42882:1,2022-12-01T07:25:00Z,28.1819,-89.2850,10.3,24.5,11111222
Shell,ioos:station:wmo:42882:1,2022-12-01T07:35:00Z,28.1819,-89.2850,10.3,24.5,11111222
Shell,ioos:station:wmo:42882:1,2022-12-01T07:45:00Z,28.1819,-89.2850,10.3,24.5,11111222
Shell,ioos:station:wmo:42882:1,2022-12-01T07:55:00Z,28.1819,-89.2850,10.3,24.5,11111222
Shell,ioos:station:wmo:42882:1,2022-12-01T08:05:00Z,28.1819,-89.2850,10.2,24.6,11111222
Shell,ioos:station:wmo:42882:1,2022-12-01T08:15:00Z,28.1819,-89.2850,10.3,24.5,11111222
Shell,ioos:station:wmo:42882:1,2022-12-01T08:25:00Z,28.1819,-89.2850,10.2,24.5,11111222
Shell,ioos:station:wmo:42882:1,2022-12-01T08:35:00Z,28.1819,-89.2850,10.2,24.6,11111222
Shell,ioos:station:wmo:42882:1,2022-12-01T08:44:00Z,28.1819,-89.2850,10.2,24.5,11111222
Shell,ioos:station:wmo:42882:1,2022-12-01T08:55:00Z,28.1819,-89.2850,10.2,24.5,11111222
Shell,ioos:station:wmo:42882:1,2022-12-01T09:04:00Z,28.1819,-89.2850,10.2,24.5,11111222
Shell,ioos:station:wmo:42882:1,2022-12-01T09:15:00Z,28.1819,-89.2850,10.1,24.5,11111222
Shell,ioos:station:wmo:42882:1,2022-12-01T09:25:00Z,28.1819,-89.2850,10.1,24.5,11111222
Shell,ioos:station:wmo:42882:1,2022-12-01T09:35:00Z,28.1819,-89.2850,10.2,24.5,11111222
Shell,ioos:station:wmo:42882:1,2022-12-01T09:45:00Z,28.1819,-89.2850,10.1,24.5,11111222
Shell,ioos:station:wmo:42882:1,2022-12-01T09:54:00Z,28.1819,-89.2850,10.2,24.5,11111222
Shell,ioos:station:wmo:42882:1,2022-12-01T10:05:00Z,28.1819,-89.2850,10.1,24.5,11111222
Shell,ioos:station:wmo:42882:1,2022-12-01T10:15:00Z,28.1819,-89.2850,10.1,24.5,11111222
Shell,ioos:station:wmo:42882:1,2022-12-01T10:24:00Z,28.1819,-89.2850,10.1,24.5,11111222
Shell,ioos:station:wmo:42882:1,2022-12-01T10:35:00Z,28.1819,-89.2850,10.1,24.5,11111222
Shell,ioos:station:wmo:42882:1,2022-12-01T10:45:00Z,28.1819,-89.2850,10.1,24.5,11111222
Shell,ioos:station:wmo:42882:1,2022-12-01T10:55:00Z,28.1819,-89.2850,10.1,24.5,11111222
Shell,ioos:station:wmo:42882:1,2022-12-01T11:05:00Z,28.1819,-89.2850,10.1,24.5,11111222
Shell,ioos:station:wmo:42882:1,2022-12-01T11:14:00Z,28.1819,-89.2850,10.1,24.5,11111222
Shell,ioos:station:wmo:42882:1,2022-12-01T11:25:00Z,28.1819,-89.2850,10.2,24.5,11111222
Shell,ioos:station:wmo:42882:1,2022-12-01T11:35:00Z,28.1819,-89.2850,10.2,24.5,11111222
Shell,ioos:station:wmo:42882:1,2022-12-01T11:45:00Z,28.1819,-89.2850,10.2,24.5,11111222
Shell,ioos:station:wmo:42882:1,2022-12-01T11:55:00Z,28.1819,-89.2850,10.2,24.5,11111222
Shell,ioos:station:wmo:42882:1,2022-12-01T12:05:00Z,28.1819,-89.2850,10.2,24.5,11111222
Shell,ioos:station:wmo:42882:1,2022-12-01T12:15:00Z,28.1819,-89.2850,10.2,24.5,11111222
Shell,ioos:station:wmo:42882:1,2022-12-01T12:25:00Z,28.1819,-89.2850,10.2,24.5,11111222
Shell,ioos:station:wmo:42882:1,2022-12-01T12:35:00Z,28.1819,-89.2850,10.2,24.5,11111222
Shell,ioos:station:wmo:42882:1,2022-12-01T12:45:00Z,28.1819,-89.2850,10.2,24.5,11111222
Shell,ioos:station:wmo:42882:1,2022-12-01T12:55:00Z,28.1819,-89.2850,10.2,24.5,11111222
Shell,ioos:station:wmo:42882:1,2022-12-01T13:05:00Z,28.1819,-89.2850,10.2,24.5,11111222
Shell,ioos:station:wmo:42882:1,2022-12-01T13:15:00Z,28.1819,-89.2850,10.2,24.5,11111222
Shell,ioos:station:wmo:42882:1,2022-12-01T13:25:00Z,28.1818,-89.2849,10.2,24.5,11111222
Shell,ioos:station:wmo:42882:1,2022-12-01T13:35:00Z,28.1818,-89.2849,10.3,24.5,11111222
Shell,ioos:station:wmo:42882:1,2022-12-01T13:45:00Z,28.1818,-89.2849,10.3,24.5,11111222
Shell,ioos:station:wmo:42882:1,2022-12-01T13:55:00Z,28.1818,-89.2849,10.3,24.5,11111222
Shell,ioos:station:wmo:42882:1,2022-12-01T14:05:00Z,28.1818,-89.2849,10.3,24.5,11111222
Shell,ioos:station:wmo:42882:1,2022-12-01T14:15:00Z,28.1818,-89.2849,10.3,24.5,11111222
Shell,ioos:station:wmo:42882:1,2022-12-01T14:24:00Z,28.1819,-89.2849,10.2,24.5,11111222
Shell,ioos:station:wmo:42882:1,2022-12-01T14:35:00Z,28.1819,-89.2849,10.3,24.5,11111222
Shell,ioos:station:wmo:42882:1,2022-12-01T14:45:00Z,28.1818,-89.2849,10.2,24.5,11111222
Shell,ioos:station:wmo:42882:1,2022-12-01T14:54:00Z,28.1818,-89.2849,10.2,24.5,11111222
Shell,ioos:station:wmo:42882:1,2022-12-01T15:05:00Z,28.1818,-89.2849,10.2,24.5,11111222
Shell,ioos:station:wmo:42882:1,2022-12-01T15:15:00Z,28.1818,-89.2849,10.3,24.5,11111222
Shell,ioos:station:wmo:42882:1,2022-12-01T15:25:00Z,28.1818,-89.2849,10.2,24.5,11111222
Shell,ioos:station:wmo:42882:1,2022-12-01T15:35:00Z,28.1818,-89.2849,10.2,24.5,11111222
Shell,ioos:station:wmo:42882:1,2022-12-01T15:45:00Z,28.1819,-89.2849,10.2,24.5,11111222
Shell,ioos:station:wmo:42882:1,2022-12-01T15:55:00Z,28.1818,-89.2849,10.3,24.5,11111222
Shell,ioos:station:wmo:42882:1,2022-12-01T16:05:00Z,28.1818,-89.2849,10.3,24.5,11111222
Shell,ioos:station:wmo:42882:1,2022-12-01T16:15:00Z,28.1818,-89.2849,10.0,24.5,11111222
Shell,ioos:station:wmo:42882:1,2022-12-01T16:25:00Z,28.1819,-89.2849,10.0,24.5,11111222
Shell,ioos:station:wmo:42882:1,2022-12-01T16:35:00Z,28.1818,-89.2849,10.0,24.5,11111222
Shell,ioos:station:wmo:42882:1,2022-12-01T16:44:00Z,28.1817,-89.2848,10.1,24.5,11111222
Shell,ioos:station:wmo:42882:1,2022-12-01T16:55:00Z,28.1817,-89.2848,10.2,24.5,11111222
Shell,ioos:station:wmo:42882:1,2022-12-01T17:04:00Z,28.1817,-89.2849,10.3,24.5,11111222
Shell,ioos:station:wmo:42882:1,2022-12-01T17:15:00Z,28.1817,-89.2848,10.3,24.5,11111222
Shell,ioos:station:wmo:42882:1,2022-12-01T17:24:00Z,28.1817,-89.2848,10.1,24.5,11111222
Shell,ioos:station:wmo:42882:1,2022-12-01T17:34:00Z,28.1817,-89.2848,10.2,24.5,11111222
Shell,ioos:station:wmo:42882:1,2022-12-01T17:45:00Z,28.1816,-89.2848,10.3,24.5,11111222
Shell,ioos:station:wmo:42882:1,2022-12-01T17:55:00Z,28.1817,-89.2848,10.1,24.5,11111222
Shell,ioos:station:wmo:42882:1,2022-12-01T18:05:00Z,28.1816,-89.2848,10.1,24.5,11111222
Shell,ioos:station:wmo:42882:1,2022-12-01T18:15:00Z,28.1816,-89.2848,10.0,24.6,11111222
Shell,ioos:station:wmo:42882:1,2022-12-01T18:24:00Z,28.1816,-89.2848,10.1,24.6,11111222
Shell,ioos:station:wmo:42882:1,2022-12-01T18:35:00Z,28.1816,-89.2848,10.0,24.6,11111222
Shell,ioos:station:wmo:42882:1,2022-12-01T18:44:00Z,28.1816,-89.2848,10.5,24.6,11111222
Shell,ioos:station:wmo:42882:1,2022-12-01T18:55:00Z,28.1816,-89.2848,10.3,24.6,11111222
Shell,ioos:station:wmo:42882:1,2022-12-01T19:05:00Z,28.1816,-89.2848,10.0,24.6,11111222
Shell,ioos:station:wmo:42882:1,2022-12-01T19:15:00Z,28.1816,-89.2848,10.1,24.6,11111222
Shell,ioos:station:wmo:42882:1,2022-12-01T19:25:00Z,28.1817,-89.2848,10.1,24.6,11111222
Shell,ioos:station:wmo:42882:1,2022-12-01T19:35:00Z,28.1816,-89.2848,10.3,24.6,11111222
Shell,ioos:station:wmo:42882:1,2022-12-01T19:45:00Z,28.1816,-89.2848,10.0,24.6,11111222
Shell,ioos:station:wmo:42882:1,2022-12-01T19:55:00Z,28.1816,-89.2848,10.0,24.6,11111222
Shell,ioos:station:wmo:42882:1,2022-12-01T20:05:00Z,28.1816,-89.2848,10.0,24.6,11111222
Shell,ioos:station:wmo:42882:1,2022-12-01T20:15:00Z,28.1817,-89.2848,10.0,24.6,11111222
Shell,ioos:station:wmo:42882:1,2022-12-01T20:25:00Z,28.1816,-89.2848,10.0,24.6,11111222
Shell,ioos:station:wmo:42882:1,2022-12-01T20:35:00Z,28.1816,-89.2848,10.1,24.6,11111222
Shell,ioos:station:wmo:42882:1,2022-12-01T20:45:00Z,28.1816,-89.2848,10.2,24.6,11111222
Shell,ioos:station:wmo:42882:1,2022-12-01T20:55:00Z,28.1816,-89.2848,10.2,24.6,11111222
Shell,ioos:station:wmo:42882:1,2022-12-01T21:05:00Z,28.1818,-89.2849,10.1,24.6,11111222
Shell,ioos:station:wmo:42882:1,2022-12-01T21:15:00Z,28.1818,-89.2849,10.1,24.6,11111222
Shell,ioos:station:wmo:42882:1,2022-12-01T21:24:00Z,28.1818,-89.2849,10.1,24.6,11111222
Shell,ioos:station:wmo:42882:1,2022-12-01T21:35:00Z,28.1818,-89.2849,10.0,24.6,11111222
Shell,ioos:station:wmo:42882:1,2022-12-01T21:44:00Z,28.1818,-89.2849,10.0,24.6,11111222
Shell,ioos:station:wmo:42882:1,2022-12-01T21:55:00Z,28.1818,-89.2849,10.0,24.6,11111222
Shell,ioos:station:wmo:42882:1,2022-12-01T22:05:00Z,28.1818,-89.2849,9.9,24.6,11111222
Shell,ioos:station:wmo:42882:1,2022-12-01T22:14:00Z,28.1818,-89.2849,9.9,24.6,11111222
Shell,ioos:station:wmo:42882:1,2022-12-01T22:25:00Z,28.1818,-89.2849,9.9,24.6,11111222
Shell,ioos:station:wmo:42882:1,2022-12-01T22:35:00Z,28.1818,-89.2849,10.0,24.6,11111222
Shell,ioos:station:wmo:42882:1,2022-12-01T22:45:00Z,28.1818,-89.2849,9.9,24.6,11111222
Shell,ioos:station:wmo:42882:1,2022-12-01T22:55:00Z,28.1818,-89.2849,10.1,24.6,11111222
Shell,ioos:station:wmo:42882:1,2022-12-01T23:05:00Z,28.1818,-89.2849,10.0,24.6,11111222
Shell,ioos:station:wmo:42882:1,2022-12-01T23:15:00Z,28.1818,-89.2849,10.1,24.6,11111222
Shell,ioos:station:wmo:42882:1,2022-12-01T23:25:00Z,28.1818,-89.2849,10.2,24.6,11111222
Shell,ioos:station:wmo:42882:1,2022-12-01T23:35:00Z,28.1818,-89.2849,10.2,24.6,11111222
Shell,ioos:station:wmo:42882:1,2022-12-01T23:45:00Z,28.1818,-89.2849,10.3,24.6,11111222
Shell,ioos:station:wmo:42882:1,2022-12-01T23:55:00Z,28.1818,-89.2849,10.3,24.6,11111222
Shell,ioos:station:wmo:42882:1,2022-12-02T00:05:00Z,28.1818,-89.2849,10.1,24.6,11111222
Shell,ioos:station:wmo:42882:1,2022-12-02T00:15:00Z,28.1818,-89.2849,10.1,24.6,11111222
Shell,ioos:station:wmo:42882:1,2022-12-02T00:25:00Z,28.1818,-89.2849,9.9,24.6,11111222
Shell,ioos:station:wmo:42882:1,2022-12-02T00:35:00Z,28.1818,-89.2849,10.1,24.5,11111222
Shell,ioos:station:wmo:42882:1,2022-12-02T00:44:00Z,28.1818,-89.2849,10.0,24.5,11111222
Shell,ioos:station:wmo:42882:1,2022-12-02T00:54:00Z,28.1818,-89.2849,9.8,24.5,11111222
Shell,ioos:station:wmo:42882:1,2022-12-02T01:05:00Z,28.1818,-89.2849,10.0,24.5,11111222
Shell,ioos:station:wmo:42882:1,2022-12-02T01:15:00Z,28.1818,-89.2849,10.1,24.5,11111222
Shell,ioos:station:wmo:42882:1,2022-12-02T01:24:00Z,28.1818,-89.2849,10.2,24.5,11111222
Shell,ioos:station:wmo:42882:1,2022-12-02T01:35:00Z,28.1818,-89.2849,10.2,24.5,11111222
Shell,ioos:station:wmo:42882:1,2022-12-02T01:44:00Z,28.1818,-89.2849,10.3,24.5,11111222
Shell,ioos:station:wmo:42882:1,2022-12-02T01:55:00Z,28.1818,-89.2849,10.3,24.5,11111222
Shell,ioos:station:wmo:42882:1,2022-12-02T02:05:00Z,28.1818,-89.2849,10.3,24.5,11111222
Shell,ioos:station:wmo:42882:1,2022-12-02T02:14:00Z,28.1818,-89.2849,10.5,24.5,11111222
Shell,ioos:station:wmo:42882:1,2022-12-02T02:25:00Z,28.1818,-89.2849,10.3,24.5,11111222
Shell,ioos:station:wmo:42882:1,2022-12-02T02:35:00Z,28.1818,-89.2849,10.2,24.5,11111222
Shell,ioos:station:wmo:42882:1,2022-12-02T02:45:00Z,28.1818,-89.2849,10.2,24.5,11111222
Shell,ioos:station:wmo:42882:1,2022-12-02T02:55:00Z,28.1818,-89.2849,10.2,24.5,11111222
Shell,ioos:station:wmo:42882:1,2022-12-02T03:05:00Z,28.1818,-89.2849,10.2,24.5,11111222
Shell,ioos:station:wmo:42882:1,2022-12-02T03:14:00Z,28.1818,-89.2849,10.2,24.5,11111222
Shell,ioos:station:wmo:42882:1,2022-12-02T03:24:00Z,28.1818,-89.2849,10.2,24.5,11111222
Shell,ioos:station:wmo:42882:1,2022-12-02T03:34:00Z,28.1818,-89.2849,10.2,24.5,11111222
Shell,ioos:station:wmo:42882:1,2022-12-02T03:44:00Z,28.1818,-89.2849,10.2,24.5,11111222
Shell,ioos:station:wmo:42882:1,2022-12-02T03:55:00Z,28.1818,-89.2849,10.2,24.5,11111222
Shell,ioos:station:wmo:42882:1,2022-12-02T04:05:00Z,28.1818,-89.2849,10.2,24.5,11111222
Shell,ioos:station:wmo:42882:1,2022-12-02T04:15:00Z,28.1818,-89.2849,10.1,24.5,11111222
Shell,ioos:station:wmo:42882:1,2022-12-02T04:25:00Z,28.1816,-89.2848,10.1,24.5,11111222
Shell,ioos:station:wmo:42882:1,2022-12-02T04:35:00Z,28.1816,-89.2848,10.2,24.5,11111222
Shell,ioos:station:wmo:42882:1,2022-12-02T04:45:00Z,28.1816,-89.2848,10.1,24.5,11111222
Shell,ioos:station:wmo:42882:1,2022-12-02T04:55:00Z,28.1816,-89.2848,10.2,24.5,11111222
Shell,ioos:station:wmo:42882:1,2022-12-02T05:05:00Z,28.1816,-89.2848,10.1,24.5,11111222
Shell,ioos:station:wmo:42882:1,2022-12-02T05:15:00Z,28.1817,-89.2848,9.9,24.5,11111222
Shell,ioos:station:wmo:42882:1,2022-12-02T05:25:00Z,28.1817,-89.2848,10.1,24.5,11111222
Shell,ioos:station:wmo:42882:1,2022-12-02T05:35:00Z,28.1817,-89.2848,10.1,24.5,11111222
Shell,ioos:station:wmo:42882:1,2022-12-02T05:45:00Z,28.1817,-89.2848,10.1,24.5,11111222
Shell,ioos:station:wmo:42882:1,2022-12-02T05:55:00Z,28.1817,-89.2848,10.0,24.5,11111222
Shell,ioos:station:wmo:42882:1,2022-12-02T06:05:00Z,28.1817,-89.2848,10.1,24.5,11111222
Shell,ioos:station:wmo:42882:1,2022-12-02T06:15:00Z,28.1816,-89.2848,10.1,24.5,11111222
Shell,ioos:station:wmo:42882:1,2022-12-02T06:24:00Z,28.1816,-89.2848,10.1,24.5,11111222
Shell,ioos:station:wmo:42882:1,2022-12-02T06:34:00Z,28.1816,-89.2848,10.2,24.5,11111222
Shell,ioos:station:wmo:42882:1,2022-12-02T06:45:00Z,28.1817,-89.2848,10.1,24.5,11111222
Shell,ioos:station:wmo:42882:1,2022-12-02T06:55:00Z,28.1817,-89.2848,10.0,24.5,11111222
Shell,ioos:station:wmo:42882:1,2022-12-02T07:05:00Z,28.1817,-89.2848,9.9,24.5,11111222
Shell,ioos:station:wmo:42882:1,2022-12-02T07:14:00Z,28.1817,-89.2848,9.9,24.5,11111222
Shell,ioos:station:wmo:42882:1,2022-12-02T07:25:00Z,28.1817,-89.2848,10.0,24.5,11111222
Shell,ioos:station:wmo:42882:1,2022-12-02T07:35:00Z,28.1817,-89.2848,10.0,24.5,11111222
Shell,ioos:station:wmo:42882:1,2022-12-02T07:45:00Z,28.1816,-89.2848,10.0,24.5,11111222
Shell,ioos:station:wmo:42882:1,2022-12-02T07:55:00Z,28.1816,-89.2848,10.2,24.5,11111222
Shell,ioos:station:wmo:42882:1,2022-12-02T08:05:00Z,28.1816,-89.2848,10.2,24.5,11111222
Shell,ioos:station:wmo:42882:1,2022-12-02T08:15:00Z,28.1816,-89.2848,10.2,24.5,11111222
Shell,ioos:station:wmo:42882:1,2022-12-02T08:25:00Z,28.1816,-89.2848,10.2,24.5,11111222
Shell,ioos:station:wmo:42882:1,2022-12-02T08:34:00Z,28.1816,-89.2848,10.1,24.5,11111222
Shell,ioos:station:wmo:42882:1,2022-12-02T08:45:00Z,28.1816,-89.2848,10.1,24.5,11111222
Shell,ioos:station:wmo:42882:1,2022-12-02T08:55:00Z,28.1816,-89.2848,10.1,24.5,11111222
Shell,ioos:station:wmo:42882:1,2022-12-02T09:05:00Z,28.1816,-89.2848,10.1,24.5,11111222
Shell,ioos:station:wmo:42882:1,2022-12-02T09:15:00Z,28.1817,-89.2848,10.1,24.5,11111222
Shell,ioos:station:wmo:42882:1,2022-12-02T09:25:00Z,28.1816,-89.2848,10.2,24.5,11111222
Shell,ioos:station:wmo:42882:1,2022-12-02T09:35:00Z,28.1816,-89.2848,10.3,24.5,11111222
Shell,ioos:station:wmo:42882:1,2022-12-02T09:45:00Z,28.1816,-89.2848,10.4,24.5,11111222
Shell,ioos:station:wmo:42882:1,2022-12-02T09:55:00Z,28.1816,-89.2848,10.4,24.5,11111222
Shell,ioos:station:wmo:42882:1,2022-12-02T10:05:00Z,28.1816,-89.2848,10.5,24.5,11111222
Shell,ioos:station:wmo:42882:1,2022-12-02T10:15:00Z,28.1816,-89.2848,10.4,24.5,11111222
Shell,ioos:station:wmo:42882:1,2022-12-02T10:25:00Z,28.1816,-89.2848,10.3,24.5,11111222
Shell,ioos:station:wmo:42882:1,2022-12-02T10:35:00Z,28.1816,-89.2848,10.3,24.5,11111222
Shell,ioos:station:wmo:42882:1,2022-12-02T10:45:00Z,28.1816,-89.2848,10.2,24.5,11111222
Shell,ioos:station:wmo:42882:1,2022-12-02T10:55:00Z,28.1816,-89.2848,10.2,24.5,11111222
Shell,ioos:station:wmo:42882:1,2022-12-02T11:05:00Z,28.1816,-89.2848,10.3,24.5,11111222
Shell,ioos:station:wmo:42882:1,2022-12-02T11:15:00Z,28.1816,-89.2848,10.4,24.5,11111222
Shell,ioos:station:wmo:42882:1,2022-12-02T11:25:00Z,28.1816,-89.2848,10.3,24.5,11111222
Shell,ioos:station:wmo:42882:1,2022-12-02T11:34:00Z,28.1816,-89.2848,10.2,24.6,11111222
Shell,ioos:station:wmo:42882:1,2022-12-02T11:45:00Z,28.1816,-89.2848,10.2,24.6,11111222
Shell,ioos:station:wmo:42882:1,2022-12-02T11:55:00Z,28.1816,-89.2848,10.2,24.6,11111222
Shell,ioos:station:wmo:42882:1,2022-12-02T12:05:00Z,28.1816,-89.2848,10.2,24.6,11111222
Shell,ioos:station:wmo:42882:1,2022-12-02T12:14:00Z,28.1816,-89.2848,10.2,24.6,11111222
Shell,ioos:station:wmo:42882:1,2022-12-02T12:25:00Z,28.1816,-89.2848,10.2,24.6,11111222
Shell,ioos:station:wmo:42882:1,2022-12-02T12:35:00Z,28.1816,-89.2848,10.2,24.6,11111222
Shell,ioos:station:wmo:42882:1,2022-12-02T12:45:00Z,28.1816,-89.2848,10.2,24.6,11111222
Shell,ioos:station:wmo:42882:1,2022-12-02T12:55:00Z,28.1816,-89.2848,10.2,24.6,11111222
Shell,ioos:station:wmo:42882:1,2022-12-02T13:04:00Z,28.1816,-89.2848,10.2,24.6,11111222
Shell,ioos:station:wmo:42882:1,2022-12-02T13:15:00Z,28.1816,-89.2848,10.1,24.6,11111222
Shell,ioos:station:wmo:42882:1,2022-12-02T13:24:00Z,28.1816,-89.2848,10.2,24.6,11111222
Shell,ioos:station:wmo:42882:1,2022-12-02T13:35:00Z,28.1816,-89.2848,10.2,24.6,11111222
Shell,ioos:station:wmo:42882:1,2022-12-02T13:45:00Z,28.1816,-89.2848,10.2,24.6,11111222
Shell,ioos:station:wmo:42882:1,2022-12-02T13:54:00Z,28.1816,-89.2848,10.2,24.6,11111222
Shell,ioos:station:wmo:42882:1,2022-12-02T14:05:00Z,28.1816,-89.2848,10.1,24.6,11111222
Shell,ioos:station:wmo:42882:1,2022-12-02T14:15:00Z,28.1816,-89.2848,10.2,24.6,11111222
Shell,ioos:station:wmo:42882:1,2022-12-02T14:25:00Z,28.1816,-89.2848,10.2,24.6,11111222
Shell,ioos:station:wmo:42882:1,2022-12-02T14:35:00Z,28.1816,-89.2848,10.2,24.6,11111222
Shell,ioos:station:wmo:42882:1,2022-12-02T14:45:00Z,28.1817,-89.2848,10.1,24.6,11111222
Shell,ioos:station:wmo:42882:1,2022-12-02T14:55:00Z,28.1817,-89.2848,9.9,24.6,11111222
Shell,ioos:station:wmo:42882:1,2022-12-02T15:05:00Z,28.1816,-89.2848,10.1,24.6,11111222
Shell,ioos:station:wmo:42882:1,2022-12-02T15:15:00Z,28.1816,-89.2848,10.0,24.6,11111222
Shell,ioos:station:wmo:42882:1,2022-12-02T15:25:00Z,28.1816,-89.2848,10.0,24.6,11111222
Shell,ioos:station:wmo:42882:1,2022-12-02T15:35:00Z,28.1817,-89.2848,10.0,24.6,11111222
Shell,ioos:station:wmo:42882:1,2022-12-02T15:44:00Z,28.1817,-89.2848,10.2,24.6,11111222
Shell,ioos:station:wmo:42882:1,2022-12-02T15:55:00Z,28.1816,-89.2848,10.2,24.6,11111222
Shell,ioos:station:wmo:42882:1,2022-12-02T16:05:00Z,28.1816,-89.2848,10.2,24.6,11111222
Shell,ioos:station:wmo:42882:1,2022-12-02T16:15:00Z,28.1816,-89.2848,10.2,24.6,11111222
Shell,ioos:station:wmo:42882:1,2022-12-02T16:25:00Z,28.1816,-89.2848,10.3,24.7,11111222
Shell,ioos:station:wmo:42882:1,2022-12-02T16:35:00Z,28.1816,-89.2848,10.2,24.6,11111222
Shell,ioos:station:wmo:42882:1,2022-12-02T16:45:00Z,28.1816,-89.2848,10.2,24.7,11111222
Shell,ioos:station:wmo:42882:1,2022-12-02T16:55:00Z,28.1819,-89.2850,10.2,24.6,11111222
Shell,ioos:station:wmo:42882:1,2022-12-02T17:05:00Z,28.1819,-89.2851,10.1,24.6,11111222
Shell,ioos:station:wmo:42882:1,2022-12-02T17:15:00Z,28.1819,-89.2851,10.1,24.6,11111222
Shell,ioos:station:wmo:42882:1,2022-12-02T17:25:00Z,28.1819,-89.2851,10.1,24.6,11111222
Shell,ioos:station:wmo:42882:1,2022-12-02T17:35:00Z,28.1819,-89.2851,10.1,24.6,11111222
Shell,ioos:station:wmo:42882:1,2022-12-02T17:44:00Z,28.1819,-89.2851,10.1,24.6,11111222
Shell,ioos:station:wmo:42882:1,2022-12-02T17:55:00Z,28.1819,-89.2851,10.1,24.6,11111222
Shell,ioos:station:wmo:42882:1,2022-12-02T18:05:00Z,28.1819,-89.2851,10.1,24.6,11111222
Shell,ioos:station:wmo:42882:1,2022-12-02T18:15:00Z,28.1819,-89.2851,10.1,24.6,11111222
Shell,ioos:station:wmo:42882:1,2022-12-02T18:25:00Z,28.1819,-89.2851,10.1,24.6,11111222
Shell,ioos:station:wmo:42882:1,2022-12-02T18:34:00Z,28.1819,-89.2851,10.1,24.6,11111222
Shell,ioos:station:wmo:42882:1,2022-12-02T18:45:00Z,28.1819,-89.2851,10.1,24.6,11111222
Shell,ioos:station:wmo:42882:1,2022-12-02T18:54:00Z,28.1819,-89.2851,10.1,24.6,11111222
Shell,ioos:station:wmo:42882:1,2022-12-02T19:05:00Z,28.1819,-89.2851,10.1,24.6,11111222
Shell,ioos:station:wmo:42882:1,2022-12-02T19:15:00Z,28.1819,-89.2851,10.1,24.6,11111222
Shell,ioos:station:wmo:42882:1,2022-12-02T19:25:00Z,28.1819,-89.2851,10.1,24.6,11111222
Shell,ioos:station:wmo:42882:1,2022-12-02T19:35:00Z,28.1819,-89.2851,10.2,24.6,11111222
Shell,ioos:station:wmo:42882:1,2022-12-02T19:45:00Z,28.1819,-89.2851,10.1,24.6,11111222
Shell,ioos:station:wmo:42882:1,2022-12-02T19:55:00Z,28.1819,-89.2851,10.1,24.6,11111222
Shell,ioos:station:wmo:42882:1,2022-12-02T20:04:00Z,28.1819,-89.2851,10.2,24.6,11111222
Shell,ioos:station:wmo:42882:1,2022-12-02T20:14:00Z,28.1819,-89.2851,10.2,24.6,11111222
Shell,ioos:station:wmo:42882:1,2022-12-02T20:25:00Z,28.1819,-89.2851,10.2,24.6,11111222
Shell,ioos:station:wmo:42882:1,2022-12-02T20:35:00Z,28.1819,-89.2851,10.2,24.6,11111222